Laramie, WY

3:51 AM MDT on September 25, 2016 (GMT -0600)
Laramie Regional

Weather History for KLAR - May, 2013

Change the Weather History Date:

Saturday, May 25, 2013

  Actual Average Record
Temperature  
Mean Temperature 55 °F 50 °F  
Max Temperature 76 °F 65 °F 79 °F (1964)
Min Temperature 34 °F 36 °F 27 °F (1950)
Degree Days  
Heating Degree Days 10 15  
Month to date heating degree days 439 459  
Since 1 July heating degree days 8379 8508  
Cooling Degree Days 0 0  
Month to date cooling degree days 0 0  
Year to date cooling degree days 0 0  
Growing Degree Days 6 (Base 50)    
Moisture  
Dew Point 26 °F    
Average Humidity 48    
Maximum Humidity 86    
Minimum Humidity 10    
Precipitation  
Precipitation 0.00 in 0.06 in 0.59 in (1950)
Month to date precipitation 0.72 1.30  
Year to date precipitation 2.70 3.56  
Sea Level Pressure  
Sea Level Pressure 29.79 in    
Wind  
Wind Speed 11 mph (SSW)    
Max Wind Speed 28 mph    
Max Gust Speed 36 mph    
Visibility 10 miles    
Events      
T = Trace of Precipitation, MM = Missing Value Source: NWS Daily Summary

Daily Weather History Graph

Daily Weather History Graph

Search for Another Location

Airport or City:

Trip Planner

Search our weather history database for the weather conditions in past years. The results will help you decide how hot, cold, wet, or windy it might be!

Date:

Astronomy

May. 25, 2013 Rise Set
Actual Time 5:35 AM MDT 8:24 PM MDT
Civil Twilight 5:03 AM MDT 8:56 PM MDT
Nautical Twilight 4:22 AM MDT 9:37 PM MDT
Astronomical Twilight 3:35 AM MDT 10:25 PM MDT
Moon 9:14 PM MDT 6:05 AM MDT
Length of Visible Light 15h 53m
Length of Day
14h 48m
Waxing Gibbous, 99% of the Moon is Illuminated
May 25
Waxing Gibbous
May 31
Last Quarter
Jun 8
New
Jun 16
First Quarter
Jun 23
Full

Hourly Weather History & Observations

Time (MDT) Temp. Windchill Dew Point Humidity Pressure Visibility Wind Dir Wind Speed Gust Speed Precip Events Conditions
12:53 AM 50.0 °F - 46.0 °F 86% 29.81 in 10.0 mi SSE 10.4 mph - N/A   Clear
1:53 AM 52.0 °F - 46.9 °F 83% 29.78 in 10.0 mi SSE 12.7 mph 18.4 mph N/A   Clear
2:53 AM 48.0 °F - 45.0 °F 89% 29.78 in 10.0 mi South 9.2 mph - N/A   Clear
3:53 AM 44.1 °F 40.8 °F 39.9 °F 85% 29.79 in 10.0 mi SSW 5.8 mph - N/A   Clear
4:53 AM 36.0 °F 29.6 °F 30.9 °F 82% 29.83 in - WSW 8.1 mph - N/A   Clear
5:53 AM 37.9 °F 35.5 °F 30.0 °F 73% 29.85 in - South 3.5 mph - N/A   Clear
6:53 AM 42.1 °F - 33.1 °F 70% 29.87 in - Calm Calm - N/A   Clear
7:53 AM 52.0 °F - 32.0 °F 47% 29.83 in 10.0 mi North - - N/A   Clear
8:53 AM 62.1 °F - 30.9 °F 31% 29.81 in 10.0 mi SSW 8.1 mph - N/A   Clear
9:53 AM 66.9 °F - 25.0 °F 21% 29.79 in 10.0 mi SSW 11.5 mph - N/A   Clear
10:53 AM 71.1 °F - 19.0 °F 14% 29.76 in 10.0 mi South 13.8 mph - N/A   Clear
11:53 AM 71.1 °F - 17.1 °F 13% 29.79 in 10.0 mi SW 15.0 mph 27.6 mph N/A   Clear
12:53 PM 73.0 °F - 17.1 °F 12% 29.76 in 10.0 mi SW 19.6 mph 29.9 mph N/A   Clear
1:53 PM 73.9 °F - 14.0 °F 10% 29.75 in 10.0 mi WSW 17.3 mph 26.5 mph N/A   Clear
2:53 PM 73.9 °F - 15.1 °F 11% 29.76 in 10.0 mi WSW 12.7 mph 27.6 mph N/A   Clear
3:53 PM 75.0 °F - 15.1 °F 10% 29.75 in 10.0 mi SSW 18.4 mph 31.1 mph N/A   Clear
4:53 PM 75.0 °F - 16.0 °F 11% 29.78 in 10.0 mi SW 18.4 mph 27.6 mph N/A   Clear
5:53 PM 72.0 °F - 12.9 °F 10% 29.77 in 10.0 mi SSW 16.1 mph 28.8 mph N/A   Clear
6:53 PM 72.0 °F - 16.0 °F 12% 29.75 in 10.0 mi WSW 18.4 mph - N/A   Clear
7:53 PM 63.0 °F - 21.0 °F 20% 29.75 in 10.0 mi WSW 10.4 mph - N/A   Clear
8:53 PM 55.9 °F - 21.0 °F 26% 29.76 in 10.0 mi West 6.9 mph - N/A   Clear
9:53 PM 50.0 °F - 19.9 °F 31% 29.78 in 10.0 mi West 8.1 mph - N/A   Clear
10:53 PM 46.0 °F 41.9 °F 26.1 °F 46% 29.78 in 10.0 mi SE 8.1 mph - N/A   Clear
11:53 PM 48.0 °F - 24.1 °F 39% 29.77 in 10.0 mi SSE 8.1 mph - N/A   Clear